User: anonymous   Login
Location: Unspecified
(0.0000°N, 0.0000°E)
Time: 08:55:27
(UTC+00:00)
Language:

Optus B1 - Orbit

View from above orbital plane
View from above orbital plane
View from above satellite
View from above satellite

Ground track
Ground track

The orbit data is extracted from the following two-line orbital elements,

1 22087U 92054A   15185.11863106  .00000052  00000-0  00000+0 0  9991
2 22087 007.5741 051.9958 0011028 045.6287 110.4565 00.99202543 95006
Epoch (UTC): 04 July 2015 02:50:49
Eccentricity: 0.0011028
inclination: 7.5741°
perigee height: 36042 km
apogee height: 36135 km
right ascension of ascending node: 51.9958°
argument of perigee: 45.6287°
revolutions per day: 0.99202543
mean anomaly at epoch: 110.4565°
orbit number at epoch: 9500

The dashed part of the orbit path shows where the satellite is in the earth's shadow,  

DLR